Home   Weather   Mount Isa   Past weeks

Flag for Australia Past Weather in Mount Isa, Queensland, Australia — Yesterday and Last 2 Weeks

Now
82 °F

Scattered clouds.


Feels Like: 81 °F
Forecast: 62 / 79 °F
Wind: 20 mph from South

Location: Mount Isa Amo

Current Time: Apr 26, 2017 at 4:33:02 pm

Latest Report: Apr 26, 2017 at 3:30 pm


Visibility: N/A

Pressure: 29.98 "Hg

Humidity: 28%

Dew Point: 46 °F

Location of Mount IsaLocation

Past Weather in Mount Isa — Graph

°F

Mount Isa Temperature Yesterday

Maximum temperature yesterday: 95 °F (at 3:30 pm)
Minimum temperature yesterday: 59 °F (at 7:00 am)
Average temperature yesterday: 76 °F

High & Low Weather Summary for the Past Weeks

 TemperatureHumidityPressure
High95 °F (Apr 25, 3:30 pm)77% (Apr 25, 7:00 am)30.12 "Hg (Apr 25, 7:00 am)
Low57 °F (Apr 12, 7:00 am)12% (Apr 11, 3:30 pm)29.89 "Hg (Apr 11, 3:00 pm)
Average79 °F36%30.00 "Hg
* Reported Apr 11 3:00 pm — Apr 26 3:00 pm, Mount Isa, Weather by CustomWeather, © 2017

Note: Actual official high and low records may vary slightly from our data, if they occured in-between our weather recording intervals... More about our weather records

Advertising

Mount Isa Weather History for the Previous 24 Hours

Scroll right to see more
 ConditionsComfort  
Time TempWeatherWind HumidityBarometerVisibility
3:00 pm
Wed, Apr 26
86 °FPartly sunny.15 mph27%29.98 "HgN/A
2:30 pm84 °FSunny.16 mph27%29.98 "HgN/A
2:00 pm84 °FSunny.16 mph29%30.01 "HgN/A
1:30 pm82 °FSunny.17 mph32%30.01 "HgN/A
1:00 pm82 °FSunny.20 mph32%30.01 "HgN/A
12:30 pm82 °FSunny.18 mph32%30.04 "HgN/A
12:00 pm81 °FSunny.17 mph34%30.04 "HgN/A
11:30 am81 °FScattered clouds.20 mph37%30.07 "HgN/A
11:02 am77 °FSunny.18 mph39%30.07 "HgN/A
10:00 am75 °FPartly sunny.17 mph47%30.07 "HgN/A
9:30 am73 °FPartly sunny.20 mph50%30.07 "HgN/A
9:00 am73 °FScattered clouds.21 mph53%30.07 "HgN/A
8:34 am73 °FScattered clouds.21 mph53%30.07 "HgN/A
8:00 am73 °FSunny.22 mph57%30.04 "HgN/A
7:30 am73 °FSunny.21 mph61%30.04 "HgN/A
7:00 am73 °FSunny.17 mph61%30.01 "HgN/A
6:30 am73 °FClear.15 mph61%30.01 "HgN/A
6:00 am75 °FClear.16 mph54%29.98 "HgN/A
5:30 am77 °FClear.15 mph47%29.98 "HgN/A
5:00 am77 °FClear.8 mph47%29.98 "HgN/A
4:30 am77 °FClear.9 mph44%29.98 "HgN/A
4:00 am79 °FClear.10 mph45%29.95 "HgN/A
3:30 am77 °FClear.9 mph44%29.95 "HgN/A
3:00 am75 °FClear.7 mph47%29.95 "HgN/A
2:30 am73 °FClear.6 mph50%29.95 "HgN/A
2:00 am73 °FClear.6 mph57%29.95 "HgN/A
1:30 am70 °FPassing clouds.No wind57%29.95 "HgN/A
1:00 am70 °FClear.No wind57%29.95 "HgN/A
12:30 am70 °FClear.No wind57%29.95 "HgN/A
12:00 am72 °FClear.No wind53%29.95 "HgN/A
11:30 pm
Tue, Apr 25
72 °FClear.No wind53%29.95 "HgN/A
11:00 pm73 °FClear.No wind50%29.95 "HgN/A
10:30 pm77 °FMostly cloudy.No wind47%29.95 "HgN/A
10:00 pm77 °FMostly cloudy.No wind44%29.98 "HgN/A
9:30 pm77 °FOvercast.6 mph44%29.95 "HgN/A
9:00 pm79 °FPassing clouds.5 mph39%29.95 "HgN/A
8:30 pm79 °FPassing clouds.3 mph39%29.95 "HgN/A
8:00 pm79 °FPassing clouds.5 mph39%29.95 "HgN/A
7:30 pm79 °FPassing clouds.5 mph39%29.92 "HgN/A
7:00 pm82 °FClear.6 mph32%29.92 "HgN/A
6:30 pm86 °FClear.6 mph31%29.89 "HgN/A
6:00 pm90 °FScattered clouds.6 mph27%29.89 "HgN/A
5:00 pm93 °FSunny.8 mph24%29.89 "HgN/A
4:30 pm93 °FSunny.3 mph24%29.89 "HgN/A
4:00 pm93 °FSunny.7 mph23%29.89 "HgN/A
Weather by CustomWeather, © 2017

See weather overviewHow to use our weather pages